DL6DJ-15 Weather Reports


time (UTC)temp
C
wind
direction
speed
KPH
gust
KPH
rain 1hr
cm
rain 24hr
cm
rain mn
cm
humidity
%
barometer
mb
20260504160440 25 0.0 0.0 0.00 0.00 0.00 26 1012.5
20260504150936 25 0.0 0.0 0.00 0.00 0.00 25 1012.4
20260504150435 25 0.0 0.0 0.00 0.00 0.00 25 1012.4
20260504140926 26 0.0 0.0 0.00 0.00 0.00 22 1012.9
20260504140426 25 0.0 0.0 0.00 0.00 0.00 23 1013.0
20260504130416 28 0.0 0.0 0.00 0.00 0.00 21 1013.7
20260504110401 28 0.0 0.0 0.00 0.00 0.00 21 1014.9
20260504100357 31 0.0 0.0 0.00 0.00 0.00 17 1015.7
20260504081847 29 0.0 0.0 0.00 0.00 0.00 19 1016.2
20260504081346 30 0.0 0.0 0.00 0.00 0.00 19 1016.3
20260504080846 30 0.0 0.0 0.00 0.00 0.00 18 1016.3
20260504080346 30 0.0 0.0 0.00 0.00 0.00 18 1016.4
20260504070341 19 0.0 0.0 0.00 0.00 0.00 40 1016.3
20260504050332 15 0.0 0.0 0.00 0.00 0.00 55 1015.9
20260504045832 15 0.0 0.0 0.00 0.00 0.00 56 1015.9
20260504045331 14 0.0 0.0 0.00 0.00 0.00 57 1015.9
20260504044831 14 0.0 0.0 0.00 0.00 0.00 59 1015.8
20260504044331 13 0.0 0.0 0.00 0.00 0.00 58 1015.8
20260504043830 13 0.0 0.0 0.00 0.00 0.00 59 1015.7
20260504043330 13 0.0 0.0 0.00 0.00 0.00 59 1015.7
20260504042829 13 0.0 0.0 0.00 0.00 0.00 59 1015.8
20260504042329 13 0.0 0.0 0.00 0.00 0.00 58 1015.8
20260504041829 13 0.0 0.0 0.00 0.00 0.00 57 1015.8
20260504041329 13 0.0 0.0 0.00 0.00 0.00 56 1015.8
20260504040828 13 0.0 0.0 0.00 0.00 0.00 56 1015.7
20260504040328 14 0.0 0.0 0.00 0.00 0.00 55 1015.8
20260504035827 14 0.0 0.0 0.00 0.00 0.00 54 1015.8
20260504035327 15 0.0 0.0 0.00 0.00 0.00 53 1015.8
20260504034827 15 0.0 0.0 0.00 0.00 0.00 51 1015.9
20260504034326 15 0.0 0.0 0.00 0.00 0.00 49 1015.7
20260504033826 15 0.0 0.0 0.00 0.00 0.00 50 1015.8
20260504033325 15 0.0 0.0 0.00 0.00 0.00 48 1015.8
20260504032825 15 0.0 0.0 0.00 0.00 0.00 47 1015.8
20260504032324 15 0.0 0.0 0.00 0.00 0.00 46 1015.7
20260504031824 15 0.0 0.0 0.00 0.00 0.00 45 1015.7
20260504031324 15 0.0 0.0 0.00 0.00 0.00 44 1015.7
20260504030823 15 0.0 0.0 0.00 0.00 0.00 45 1015.7
20260504030323 15 0.0 0.0 0.00 0.00 0.00 44 1015.7
20260504025822 15 0.0 0.0 0.00 0.00 0.00 44 1015.7
20260504025322 15 0.0 0.0 0.00 0.00 0.00 44 1015.6
20260504024821 15 0.0 0.0 0.00 0.00 0.00 45 1015.5
20260504024321 15 0.0 0.0 0.00 0.00 0.00 45 1015.5
20260504023821 15 0.0 0.0 0.00 0.00 0.00 45 1015.7
20260504023320 15 0.0 0.0 0.00 0.00 0.00 46 1015.9
20260504022820 15 0.0 0.0 0.00 0.00 0.00 46 1015.9
20260504022319 15 0.0 0.0 0.00 0.00 0.00 45 1015.8
20260504021819 15 0.0 0.0 0.00 0.00 0.00 45 1015.9
20260504021318 15 0.0 0.0 0.00 0.00 0.00 45 1015.8
20260504020818 15 0.0 0.0 0.00 0.00 0.00 46 1015.7
20260504020318 15 0.0 0.0 0.00 0.00 0.00 46 1015.8
20260504015818 15 0.0 0.0 0.00 0.00 0.00 46 1015.9
20260504015317 15 0.0 0.0 0.00 0.00 0.00 45 1015.8
20260504014817 15 0.0 0.0 0.00 0.00 0.00 45 1015.8
20260504014316 15 0.0 0.0 0.00 0.00 0.00 45 1015.9
20260504013816 15 0.0 0.0 0.00 0.00 0.00 45 1015.9
20260504013316 15 0.0 0.0 0.00 0.00 0.00 44 1015.9
20260504012815 15 0.0 0.0 0.00 0.00 0.00 44 1015.9
20260504012315 16 0.0 0.0 0.00 0.00 0.00 44 1015.7
20260504011814 16 0.0 0.0 0.00 0.00 0.00 43 1015.6
20260504011314 16 0.0 0.0 0.00 0.00 0.00 44 1015.5
20260504010814 16 0.0 0.0 0.00 0.00 0.00 44 1015.7
20260504010313 16 0.0 0.0 0.00 0.00 0.00 44 1015.5
20260504005813 16 0.0 0.0 0.00 0.00 0.00 44 1015.4
20260504005313 16 0.0 0.0 0.00 0.00 0.00 44 1015.3
20260504004812 16 0.0 0.0 0.00 0.00 0.00 45 1015.2
20260504004311 16 0.0 0.0 0.00 0.00 0.00 45 1015.2
20260504003811 16 0.0 0.0 0.00 0.00 0.00 44 1015.2
20260504003311 16 0.0 0.0 0.00 0.00 0.00 44 1015.1
20260504002811 16 0.0 0.0 0.00 0.00 0.00 44 1015.1
20260504002310 16 0.0 0.0 0.00 0.00 0.00 43 1014.9
20260504001810 16 0.0 0.0 0.00 0.00 0.00 43 1014.7
20260504001309 16 0.0 0.0 0.00 0.00 0.00 43 1014.7
20260504000809 16 0.0 0.0 0.00 0.00 0.00 43 1014.8
20260504000308 16 0.0 0.0 0.00 0.00 0.00 44 1014.9
20260503235808 16 0.0 0.0 0.00 0.00 0.00 44 1015.0
20260503235307 16 0.0 0.0 0.00 0.00 0.00 43 1014.9
20260503234807 17 0.0 0.0 0.00 0.00 0.00 44 1014.9
20260503234307 17 0.0 0.0 0.00 0.00 0.00 44 1014.8
20260503233806 17 0.0 0.0 0.00 0.00 0.00 44 1014.8
20260503233306 16 0.0 0.0 0.00 0.00 0.00 44 1014.9
20260503232805 16 0.0 0.0 0.00 0.00 0.00 44 1015.0
20260503232306 17 0.0 0.0 0.00 0.00 0.00 45 1015.0
20260503231805 17 0.0 0.0 0.00 0.00 0.00 46 1014.9
20260503231304 17 0.0 0.0 0.00 0.00 0.00 46 1015.0
20260503230804 17 0.0 0.0 0.00 0.00 0.00 46 1014.8
20260503230304 17 0.0 0.0 0.00 0.00 0.00 46 1014.8
20260503225803 17 0.0 0.0 0.00 0.00 0.00 44 1014.6
20260503225304 17 0.0 0.0 0.00 0.00 0.00 46 1014.7
20260503224803 17 0.0 0.0 0.00 0.00 0.00 45 1014.7
20260503224302 17 0.0 0.0 0.00 0.00 0.00 46 1014.6
20260503223802 17 0.0 0.0 0.00 0.00 0.00 45 1014.5
20260503223302 17 0.0 0.0 0.00 0.00 0.00 44 1014.4
20260503222801 17 0.0 0.0 0.00 0.00 0.00 45 1014.5
20260503222301 17 0.0 0.0 0.00 0.00 0.00 45 1014.4
20260503221800 17 0.0 0.0 0.00 0.00 0.00 45 1014.3
20260503221300 17 0.0 0.0 0.00 0.00 0.00 46 1014.4
20260503220759 17 0.0 0.0 0.00 0.00 0.00 46 1014.3
20260503220258 17 0.0 0.0 0.00 0.00 0.00 47 1014.3
20260503215758 17 0.0 0.0 0.00 0.00 0.00 46 1014.3
20260503215258 17 0.0 0.0 0.00 0.00 0.00 46 1014.4
20260503214757 17 0.0 0.0 0.00 0.00 0.00 45 1014.4
20260503214257 17 0.0 0.0 0.00 0.00 0.00 45 1014.4
20260503213756 17 0.0 0.0 0.00 0.00 0.00 45 1014.3
20260503213256 17 0.0 0.0 0.00 0.00 0.00 45 1014.2
20260503212756 17 0.0 0.0 0.00 0.00 0.00 47 1014.1
20260503212255 17 0.0 0.0 0.00 0.00 0.00 46 1014.0
20260503211755 17 0.0 0.0 0.00 0.00 0.00 45 1014.0
20260503211255 18 0.0 0.0 0.00 0.00 0.00 45 1013.9
20260503210754 18 0.0 0.0 0.00 0.00 0.00 44 1014.0
20260503210253 18 0.0 0.0 0.00 0.00 0.00 41 1013.9
20260503205753 18 0.0 0.0 0.00 0.00 0.00 42 1013.8
20260503205253 18 0.0 0.0 0.00 0.00 0.00 42 1013.7
20260503204753 18 0.0 0.0 0.00 0.00 0.00 42 1013.7
20260503204252 18 0.0 0.0 0.00 0.00 0.00 43 1013.7
20260503203752 18 0.0 0.0 0.00 0.00 0.00 43 1013.7
20260503203251 18 0.0 0.0 0.00 0.00 0.00 44 1013.6
20260503202751 17 0.0 0.0 0.00 0.00 0.00 45 1013.6
20260503202251 17 0.0 0.0 0.00 0.00 0.00 47 1013.7
20260503201750 17 0.0 0.0 0.00 0.00 0.00 46 1013.6
20260503201250 17 0.0 0.0 0.00 0.00 0.00 48 1013.7
20260503200749 17 0.0 0.0 0.00 0.00 0.00 46 1013.6
20260503200249 17 0.0 0.0 0.00 0.00 0.00 47 1013.5
20260503195749 17 0.0 0.0 0.00 0.00 0.00 47 1013.5
20260503195248 17 0.0 0.0 0.00 0.00 0.00 46 1013.4
20260503194748 17 0.0 0.0 0.00 0.00 0.00 46 1013.4
20260503194247 17 0.0 0.0 0.00 0.00 0.00 45 1013.3
20260503193747 17 0.0 0.0 0.00 0.00 0.00 46 1013.3
20260503193247 17 0.0 0.0 0.00 0.00 0.00 44 1013.3
20260503192746 17 0.0 0.0 0.00 0.00 0.00 47 1013.3
20260503192246 17 0.0 0.0 0.00 0.00 0.00 46 1013.3
20260503191745 17 0.0 0.0 0.00 0.00 0.00 46 1013.2
20260503191245 17 0.0 0.0 0.00 0.00 0.00 47 1013.1
20260503190745 17 0.0 0.0 0.00 0.00 0.00 47 1013.1
20260503190244 17 0.0 0.0 0.00 0.00 0.00 45 1013.2
20260503185744 18 0.0 0.0 0.00 0.00 0.00 44 1013.2
20260503185244 18 0.0 0.0 0.00 0.00 0.00 44 1013.1
20260503184743 18 0.0 0.0 0.00 0.00 0.00 44 1013.0
20260503184243 18 0.0 0.0 0.00 0.00 0.00 44 1012.9
20260503183743 18 0.0 0.0 0.00 0.00 0.00 44 1012.9
20260503183242 18 0.0 0.0 0.00 0.00 0.00 46 1012.9
20260503182742 18 0.0 0.0 0.00 0.00 0.00 45 1012.8
20260503182242 19 0.0 0.0 0.00 0.00 0.00 44 1012.8
20260503181741 19 0.0 0.0 0.00 0.00 0.00 44 1012.7
20260503181241 20 0.0 0.0 0.00 0.00 0.00 44 1012.6
20260503180741 20 0.0 0.0 0.00 0.00 0.00 43 1012.6
20260503180240 21 0.0 0.0 0.00 0.00 0.00 44 1012.6
20260503175739 21 0.0 0.0 0.00 0.00 0.00 44 1012.6
20260503175239 21 0.0 0.0 0.00 0.00 0.00 43 1012.6
20260503174739 22 0.0 0.0 0.00 0.00 0.00 42 1012.6
20260503174239 22 0.0 0.0 0.00 0.00 0.00 41 1012.6
20260503173738 23 0.0 0.0 0.00 0.00 0.00 40 1012.6
20260503173238 23 0.0 0.0 0.00 0.00 0.00 38 1012.6
20260503172738 23 0.0 0.0 0.00 0.00 0.00 37 1012.6
20260503172238 23 0.0 0.0 0.00 0.00 0.00 39 1012.7
20260503171737 24 0.0 0.0 0.00 0.00 0.00 41 1012.6
20260503171236 25 0.0 0.0 0.00 0.00 0.00 39 1012.6
20260503170736 25 0.0 0.0 0.00 0.00 0.00 37 1012.6
20260503170236 25 0.0 0.0 0.00 0.00 0.00 37 1012.6